Погода в Журавлевке

Россия / Белгородская область     50°18′38″N   36°19′05″E
темп.,
°C
ветер,
м/с
пор.,
м/с
влажн.,
%
обл.,
%
осадки,
мм/ч
давл.,
гПа
погр.,
м
20 апреля, вт
вт2000:00+7всв3486100 0.0 101357
03:00+7в2287100 0.1 101230
06:00+8всв4892100 0.2 1011293
09:00+9всв5888100 0.3 1010349
12:00+10всв51089100 1.4 1008667
15:00+11всв5784100 3.7 1005626
18:00+9всв6993100 10.2 1002557
21:00+8ссв71295100 14.8 1001694
21 апреля, ср
ср2100:00+7ссз61093100 0.8 1001606
03:00+7зсз5992100 0.8 1004630
06:00+7з3794100 0.0 1006472
09:00+8зюз3792100 0.3 1009627
12:00+9зюз6974100 0.1 10111158
15:00+12зюз695998 0.3 10121643
18:00+11зюз476548 0.1 1013990
21:00+7юз348799 0.8 101582
22 апреля, чт
чт2200:00+6юз22895 0.1 101628
03:00+5юз22895 0.1 101728
06:00+5ююз33865 0.0 101946
09:00+11ююз46666 0.0 1019423
12:00+15юз575563 0.3 10191664
15:00+15юз4656100 1.4 10191058
18:00+14ю3667100 0.7 1019184
21:00+12ю367196 0.7 1020120
23 апреля, пт
пт2300:00+11ю366788 0.0 1019101
03:00+10ю3771100 0.0 1019138
06:00+10ю3879100 0.0 1019203
09:00+13ю57675 0.0 1019616
12:00+16ююз78455 0.0 10181782
15:00+16ююз5751100 0.1 10171469
18:00+15ю6105471 0.0 1016756
21:00+13ююз6125899 0.1 1015502
24 апреля, сб
сб2400:00+10ююз357998 0.1 1014136
03:00+9ююз3688100 0.4 1013236
06:00+5сз6993100 1.5 1013571
09:00+6сз61083100 4.9 1015915
12:00+10зсз79515 0.3 10151921
15:00+11з8104496 0.3 10152224
18:00+9з7105295 0.1 10161710
21:00+7з5106290 0.1 1017504